OAS060 SKBO-MPTO

Flight info

Callsign OAS060
Flight time 1h 8m
Altitude 36000
Route TOBKI4R VASIL UL423 PULOX DCT SIGUN ISOKO2A
Aircraft B738/M-SDE2E3FGHIRWXY/LB1

Departure

Time 2026-05-05 19:19
Airport El Dorado International Airport (SKBO)

Arrival

Time 2026-05-05 20:27
Airport Tocumen International Airport (MPTO)
Time Latitude Longitude Altitude Speed Heading
2026-05-05 18:22 4.69839 -74.13912 8365 ft 0 kts 217°
2026-05-05 18:49 4.69841 -74.13912 8365 ft 2 kts 217°
2026-05-05 18:49 4.69858 -74.13899 8365 ft 3 kts 216°
2026-05-05 18:50 4.69876 -74.13886 8365 ft 1 kts 216°
2026-05-05 18:50 4.69890 -74.13874 8365 ft 3 kts 245°
2026-05-05 18:50 4.69891 -74.13857 8365 ft 3 kts 299°
2026-05-05 18:50 4.69879 -74.13839 8366 ft 3 kts 307°
2026-05-05 18:51 4.69874 -74.13832 8366 ft 0 kts 307°
2026-05-05 18:58 4.69877 -74.13837 8365 ft 2 kts 307°
2026-05-05 18:58 4.69893 -74.13857 8365 ft 5 kts 307°
2026-05-05 18:58 4.69913 -74.13884 8365 ft 5 kts 307°
2026-05-05 18:59 4.69933 -74.13911 8365 ft 5 kts 307°
2026-05-05 18:59 4.69953 -74.13937 8365 ft 5 kts 307°
2026-05-05 18:59 4.69972 -74.13963 8365 ft 5 kts 307°
2026-05-05 18:59 4.69994 -74.13993 8365 ft 6 kts 307°
2026-05-05 19:00 4.70019 -74.14027 8365 ft 6 kts 304°
2026-05-05 19:00 4.70033 -74.14033 8365 ft 2 kts 354°
2026-05-05 19:00 4.70057 -74.14024 8365 ft 5 kts 28°
2026-05-05 19:00 4.70089 -74.14007 8365 ft 3 kts 12°
2026-05-05 19:01 4.70105 -74.14014 8365 ft 3 kts 319°
2026-05-05 19:01 4.70118 -74.14034 8365 ft 5 kts 304°
2026-05-05 19:01 4.70133 -74.14055 8365 ft 1 kts 306°
2026-05-05 19:01 4.70134 -74.14057 8365 ft 0 kts 306°
2026-05-05 19:02 4.70144 -74.14070 8365 ft 4 kts 308°
2026-05-05 19:02 4.70163 -74.14095 8365 ft 5 kts 307°
2026-05-05 19:02 4.70187 -74.14126 8365 ft 6 kts 307°
2026-05-05 19:02 4.70216 -74.14165 8365 ft 8 kts 306°
2026-05-05 19:03 4.70252 -74.14213 8365 ft 10 kts 307°
2026-05-05 19:03 4.70305 -74.14284 8365 ft 9 kts 307°
2026-05-05 19:03 4.70350 -74.14341 8365 ft 12 kts 308°
2026-05-05 19:03 4.70391 -74.14398 8365 ft 11 kts 307°
2026-05-05 19:04 4.70429 -74.14446 8366 ft 9 kts 309°
2026-05-05 19:04 4.70444 -74.14486 8365 ft 3 kts 263°
2026-05-05 19:04 4.70432 -74.14500 8365 ft 4 kts 218°
2026-05-05 19:04 4.70400 -74.14525 8365 ft 9 kts 217°
2026-05-05 19:05 4.70341 -74.14568 8365 ft 7 kts 216°
2026-05-05 19:05 4.70291 -74.14605 8365 ft 11 kts 216°
2026-05-05 19:05 4.70222 -74.14657 8365 ft 14 kts 218°
2026-05-05 19:05 4.70137 -74.14722 8365 ft 16 kts 216°
2026-05-05 19:06 4.70044 -74.14791 8365 ft 13 kts 218°
2026-05-05 19:06 4.69963 -74.14853 8365 ft 12 kts 217°
2026-05-05 19:06 4.69894 -74.14904 8365 ft 12 kts 216°
2026-05-05 19:06 4.69853 -74.14956 8365 ft 9 kts 263°
2026-05-05 19:07 4.69881 -74.15012 8365 ft 10 kts 305°
2026-05-05 19:07 4.69924 -74.15069 8365 ft 11 kts 308°
2026-05-05 19:07 4.69972 -74.15131 8365 ft 12 kts 307°
2026-05-05 19:07 4.70023 -74.15199 8365 ft 13 kts 307°
2026-05-05 19:08 4.70076 -74.15268 8365 ft 12 kts 307°
2026-05-05 19:08 4.70133 -74.15344 8365 ft 16 kts 306°
2026-05-05 19:08 4.70199 -74.15433 8365 ft 15 kts 307°
2026-05-05 19:08 4.70271 -74.15527 8365 ft 12 kts 307°
2026-05-05 19:09 4.70320 -74.15590 8364 ft 13 kts 307°
2026-05-05 19:09 4.70377 -74.15668 8364 ft 15 kts 306°
2026-05-05 19:09 4.70435 -74.15745 8364 ft 12 kts 308°
2026-05-05 19:09 4.70491 -74.15815 8364 ft 14 kts 308°
2026-05-05 19:10 4.70551 -74.15893 8365 ft 12 kts 305°
2026-05-05 19:10 4.70604 -74.15967 8365 ft 14 kts 307°
2026-05-05 19:10 4.70658 -74.16038 8365 ft 13 kts 307°
2026-05-05 19:10 4.70716 -74.16113 8365 ft 14 kts 307°
2026-05-05 19:11 4.70780 -74.16197 8365 ft 15 kts 307°
2026-05-05 19:11 4.70839 -74.16274 8365 ft 15 kts 308°
2026-05-05 19:11 4.70889 -74.16341 8366 ft 12 kts 306°
2026-05-05 19:11 4.70943 -74.16413 8365 ft 14 kts 307°
2026-05-05 19:12 4.71004 -74.16494 8365 ft 15 kts 307°
2026-05-05 19:12 4.71068 -74.16579 8365 ft 15 kts 307°
2026-05-05 19:12 4.71135 -74.16665 8365 ft 15 kts 308°
2026-05-05 19:12 4.71188 -74.16739 8365 ft 10 kts 305°
2026-05-05 19:13 4.71202 -74.16784 8365 ft 1 kts 257°
2026-05-05 19:13 4.71192 -74.16797 8365 ft 4 kts 227°
2026-05-05 19:13 4.71167 -74.16820 8364 ft 6 kts 219°
2026-05-05 19:13 4.71148 -74.16835 8364 ft 0 kts 216°
2026-05-05 19:16 4.71145 -74.16837 8364 ft 3 kts 216°
2026-05-05 19:16 4.71119 -74.16856 8363 ft 7 kts 216°
2026-05-05 19:16 4.71073 -74.16888 8362 ft 6 kts 212°
2026-05-05 19:17 4.71047 -74.16901 8362 ft 2 kts 188°
2026-05-05 19:17 4.71033 -74.16896 8362 ft 2 kts 147°
2026-05-05 19:17 4.71023 -74.16882 8362 ft 3 kts 127°
2026-05-05 19:17 4.71022 -74.16881 8362 ft 0 kts 126°
2026-05-05 19:18 4.70991 -74.16838 8362 ft 31 kts 127°
2026-05-05 19:18 4.70720 -74.16481 8364 ft 96 kts 127°
2026-05-05 19:18 4.70203 -74.15793 8362 ft 150 kts 127°
2026-05-05 19:19 4.69483 -74.14846 8526 ft 183 kts 129°
2026-05-05 19:19 4.68688 -74.13818 9300 ft 195 kts 129°
2026-05-05 19:19 4.67536 -74.13091 9942 ft 205 kts 172°
2026-05-05 19:19 4.66075 -74.13351 10220 ft 232 kts 205°
2026-05-05 19:20 4.64845 -74.14473 10484 ft 250 kts 239°
2026-05-05 19:20 4.64105 -74.16026 11150 ft 247 kts 242°
2026-05-05 19:20 4.63315 -74.17568 11681 ft 251 kts 239°
2026-05-05 19:20 4.62473 -74.19121 12214 ft 255 kts 239°
2026-05-05 19:21 4.61636 -74.20693 12779 ft 257 kts 244°
2026-05-05 19:21 4.61129 -74.22456 13113 ft 274 kts 257°
2026-05-05 19:21 4.60775 -74.24410 13248 ft 295 kts 259°
2026-05-05 19:21 4.60406 -74.26515 13409 ft 319 kts 258°
2026-05-05 19:22 4.60114 -74.28797 13607 ft 341 kts 265°
2026-05-05 19:22 4.60009 -74.31246 13854 ft 360 kts 267°
2026-05-05 19:22 4.59993 -74.33787 14250 ft 371 kts 275°
2026-05-05 19:22 4.60590 -74.36323 14686 ft 378 kts 293°
2026-05-05 19:23 4.61880 -74.38618 15319 ft 377 kts 305°
2026-05-05 19:23 4.63368 -74.40785 15935 ft 380 kts 306°
2026-05-05 19:23 4.64879 -74.42982 16429 ft 386 kts 305°
2026-05-05 19:23 4.66401 -74.45209 16980 ft 389 kts 305°
2026-05-05 19:24 4.67928 -74.47458 17559 ft 391 kts 305°
2026-05-05 19:24 4.69454 -74.49719 18108 ft 393 kts 306°
2026-05-05 19:24 4.70987 -74.52000 18589 ft 397 kts 305°
2026-05-05 19:24 4.72529 -74.54303 19061 ft 399 kts 305°
2026-05-05 19:25 4.74078 -74.56616 19580 ft 400 kts 305°
2026-05-05 19:25 4.75635 -74.58945 20039 ft 404 kts 305°
2026-05-05 19:25 4.77201 -74.61288 20525 ft 405 kts 305°
2026-05-05 19:25 4.78778 -74.63646 20977 ft 408 kts 305°
2026-05-05 19:26 4.80364 -74.66019 21399 ft 412 kts 305°
2026-05-05 19:26 4.81962 -74.68411 21829 ft 414 kts 305°
2026-05-05 19:26 4.83568 -74.70814 22323 ft 416 kts 305°
2026-05-05 19:26 4.85162 -74.73200 22765 ft 418 kts 305°
2026-05-05 19:27 4.86809 -74.75663 23195 ft 421 kts 305°
2026-05-05 19:27 4.88423 -74.78078 23582 ft 423 kts 305°
2026-05-05 19:27 4.90067 -74.80539 23911 ft 426 kts 305°
2026-05-05 19:27 4.91720 -74.83013 24260 ft 429 kts 305°
2026-05-05 19:28 4.93381 -74.85501 24601 ft 430 kts 305°
2026-05-05 19:28 4.95054 -74.88006 24922 ft 433 kts 305°
2026-05-05 19:28 4.96732 -74.90520 25275 ft 434 kts 305°
2026-05-05 19:28 4.98419 -74.93047 25592 ft 437 kts 305°
2026-05-05 19:29 5.00113 -74.95584 25942 ft 438 kts 305°
2026-05-05 19:29 5.01806 -74.98122 26381 ft 438 kts 305°
2026-05-05 19:29 5.03496 -75.00652 26652 ft 442 kts 305°
2026-05-05 19:29 5.05210 -75.03221 26894 ft 446 kts 305°
2026-05-05 19:30 5.06943 -75.05817 27208 ft 448 kts 305°
2026-05-05 19:30 5.08678 -75.08418 27522 ft 450 kts 305°
2026-05-05 19:30 5.10421 -75.11030 27829 ft 452 kts 305°
2026-05-05 19:30 5.12171 -75.13655 28148 ft 453 kts 305°
2026-05-05 19:31 5.13926 -75.16287 28501 ft 454 kts 305°
2026-05-05 19:31 5.15707 -75.18919 28871 ft 457 kts 307°
2026-05-05 19:31 5.17701 -75.21398 29150 ft 458 kts 312°
2026-05-05 19:31 5.19818 -75.23800 29420 ft 460 kts 313°
2026-05-05 19:32 5.21980 -75.26182 29723 ft 462 kts 314°
2026-05-05 19:32 5.24145 -75.28561 30014 ft 463 kts 313°
2026-05-05 19:32 5.26311 -75.30959 30250 ft 465 kts 313°
2026-05-05 19:32 5.28478 -75.33380 30477 ft 466 kts 313°
2026-05-05 19:33 5.30633 -75.35807 30730 ft 466 kts 313°
2026-05-05 19:33 5.32784 -75.38239 31052 ft 465 kts 313°
2026-05-05 19:33 5.34897 -75.40634 31383 ft 463 kts 313°
2026-05-05 19:33 5.37029 -75.43053 31708 ft 462 kts 313°
2026-05-05 19:34 5.39157 -75.45465 32002 ft 462 kts 313°
2026-05-05 19:34 5.41285 -75.47878 32325 ft 461 kts 313°
2026-05-05 19:34 5.43407 -75.50285 32678 ft 459 kts 313°
2026-05-05 19:35 5.47628 -75.55069 33355 ft 457 kts 313°
2026-05-05 19:35 5.49731 -75.57453 33640 ft 456 kts 313°
2026-05-05 19:35 5.51834 -75.59837 33982 ft 455 kts 313°
2026-05-05 19:35 5.53929 -75.62214 34269 ft 454 kts 313°
2026-05-05 19:36 5.56016 -75.64580 34514 ft 453 kts 313°
2026-05-05 19:36 5.58108 -75.66953 34732 ft 454 kts 313°
2026-05-05 19:36 5.60199 -75.69326 34965 ft 454 kts 313°
2026-05-05 19:36 5.62286 -75.71693 35245 ft 452 kts 313°
2026-05-05 19:37 5.64368 -75.74057 35523 ft 452 kts 313°
2026-05-05 19:37 5.66452 -75.76422 35761 ft 451 kts 312°
2026-05-05 19:37 5.68526 -75.78775 35951 ft 452 kts 312°
2026-05-05 19:38 5.72700 -75.83549 35968 ft 455 kts 311°
2026-05-05 19:38 5.76751 -75.88404 35957 ft 451 kts 310°
2026-05-05 19:39 5.80741 -75.93239 35968 ft 449 kts 310°
2026-05-05 19:39 5.84732 -75.98059 35965 ft 448 kts 310°
2026-05-05 19:40 5.88730 -76.02867 35962 ft 448 kts 311°
2026-05-05 19:40 5.92725 -76.07669 35959 ft 448 kts 311°
2026-05-05 19:41 5.96701 -76.12448 35963 ft 449 kts 311°
2026-05-05 19:41 6.00701 -76.17258 35952 ft 449 kts 311°
2026-05-05 19:42 6.04709 -76.22077 35964 ft 450 kts 311°
2026-05-05 19:42 6.08726 -76.26910 35961 ft 451 kts 311°
2026-05-05 19:43 6.12096 -76.30965 35961 ft 451 kts 311°
2026-05-05 19:43 6.16095 -76.35779 35953 ft 452 kts 311°
2026-05-05 19:44 6.20129 -76.40634 35947 ft 453 kts 311°
2026-05-05 19:44 6.24167 -76.45498 35938 ft 453 kts 311°
2026-05-05 19:45 6.28209 -76.50366 35921 ft 453 kts 311°
2026-05-05 19:45 6.32246 -76.55230 35903 ft 453 kts 311°
2026-05-05 19:46 6.36278 -76.60089 35898 ft 452 kts 311°
2026-05-05 19:46 6.40301 -76.64939 35888 ft 451 kts 310°
2026-05-05 19:47 6.44308 -76.69771 35879 ft 450 kts 310°
2026-05-05 19:47 6.48309 -76.74597 35879 ft 448 kts 310°
2026-05-05 19:48 6.52299 -76.79411 35873 ft 447 kts 310°
2026-05-05 19:48 6.56279 -76.84214 35870 ft 447 kts 311°
2026-05-05 19:49 6.60255 -76.89013 35873 ft 446 kts 311°
2026-05-05 19:49 6.64222 -76.93804 35873 ft 446 kts 310°
2026-05-05 19:50 6.68190 -76.98597 35872 ft 446 kts 310°
2026-05-05 19:50 6.72157 -77.03390 35862 ft 446 kts 310°
2026-05-05 19:51 6.76125 -77.08184 35862 ft 446 kts 310°
2026-05-05 19:51 6.80090 -77.12978 35869 ft 446 kts 310°
2026-05-05 19:52 6.84055 -77.17773 35870 ft 446 kts 310°
2026-05-05 19:52 6.88024 -77.22573 35869 ft 446 kts 310°
2026-05-05 19:53 6.91995 -77.27378 35870 ft 447 kts 310°
2026-05-05 19:53 6.95947 -77.32160 35875 ft 447 kts 310°
2026-05-05 19:54 6.99950 -77.37007 35872 ft 447 kts 310°
2026-05-05 19:54 7.03900 -77.41790 35869 ft 447 kts 310°
2026-05-05 19:55 7.07877 -77.46607 35875 ft 448 kts 310°
2026-05-05 19:55 7.11858 -77.51431 35876 ft 448 kts 310°
2026-05-05 19:56 7.15836 -77.56254 35869 ft 448 kts 310°
2026-05-05 19:56 7.19815 -77.61078 35879 ft 448 kts 310°
2026-05-05 19:57 7.23792 -77.65902 35883 ft 448 kts 310°
2026-05-05 19:57 7.27770 -77.70728 35881 ft 446 kts 310°
2026-05-05 19:58 7.31685 -77.75480 35874 ft 437 kts 310°
2026-05-05 19:58 7.35559 -77.80183 35788 ft 437 kts 310°
2026-05-05 19:58 7.37495 -77.82534 35452 ft 435 kts 310°
2026-05-05 19:59 7.39420 -77.84862 35108 ft 429 kts 311°
2026-05-05 19:59 7.41357 -77.87141 34738 ft 426 kts 312°
2026-05-05 19:59 7.43300 -77.89387 34362 ft 424 kts 312°
2026-05-05 19:59 7.45239 -77.91617 33966 ft 422 kts 313°
2026-05-05 20:00 7.47169 -77.93838 33528 ft 421 kts 312°
2026-05-05 20:00 7.49089 -77.96052 33119 ft 418 kts 312°
2026-05-05 20:00 7.50994 -77.98253 32724 ft 416 kts 312°
2026-05-05 20:00 7.52886 -78.00444 32337 ft 413 kts 312°
2026-05-05 20:01 7.54766 -78.02624 31952 ft 411 kts 312°
2026-05-05 20:01 7.56638 -78.04796 31570 ft 409 kts 312°
2026-05-05 20:01 7.58489 -78.06944 31197 ft 407 kts 312°
2026-05-05 20:01 7.60321 -78.09070 30829 ft 405 kts 312°
2026-05-05 20:02 7.62160 -78.11206 30443 ft 403 kts 312°
2026-05-05 20:02 7.63996 -78.13337 30078 ft 402 kts 312°
2026-05-05 20:02 7.65826 -78.15463 29645 ft 400 kts 312°
2026-05-05 20:02 7.67644 -78.17574 29233 ft 397 kts 312°
2026-05-05 20:03 7.69448 -78.19670 28826 ft 395 kts 312°
2026-05-05 20:03 7.71240 -78.21752 28433 ft 392 kts 312°
2026-05-05 20:03 7.73014 -78.23814 28049 ft 389 kts 312°
2026-05-05 20:03 7.74784 -78.25871 27662 ft 386 kts 312°
2026-05-05 20:04 7.76535 -78.27906 27293 ft 383 kts 312°
2026-05-05 20:04 7.78275 -78.29929 26926 ft 380 kts 312°
2026-05-05 20:04 7.80004 -78.31939 26553 ft 378 kts 312°
2026-05-05 20:04 7.81726 -78.33940 26181 ft 376 kts 312°
2026-05-05 20:05 7.83436 -78.35929 25813 ft 375 kts 312°
2026-05-05 20:05 7.85139 -78.37910 25422 ft 373 kts 312°
2026-05-05 20:05 7.86839 -78.39888 25048 ft 372 kts 312°
2026-05-05 20:05 7.88532 -78.41856 24680 ft 371 kts 312°
2026-05-05 20:06 7.90221 -78.43822 24307 ft 370 kts 312°
2026-05-05 20:06 7.91904 -78.45781 23935 ft 369 kts 312°
2026-05-05 20:06 7.93581 -78.47732 23570 ft 368 kts 312°
2026-05-05 20:06 7.95260 -78.49686 23143 ft 368 kts 312°
2026-05-05 20:07 7.96927 -78.51628 22758 ft 365 kts 312°
2026-05-05 20:07 7.98569 -78.53539 22390 ft 363 kts 312°
2026-05-05 20:07 8.00217 -78.55459 22019 ft 361 kts 312°
2026-05-05 20:07 8.01855 -78.57367 21659 ft 359 kts 312°
2026-05-05 20:08 8.03482 -78.59262 21303 ft 356 kts 312°
2026-05-05 20:08 8.05101 -78.61148 20951 ft 355 kts 312°
2026-05-05 20:08 8.06713 -78.63026 20596 ft 353 kts 312°
2026-05-05 20:08 8.08315 -78.64893 20251 ft 351 kts 312°
2026-05-05 20:09 8.09912 -78.66755 19894 ft 350 kts 312°
2026-05-05 20:09 8.11504 -78.68610 19530 ft 350 kts 312°
2026-05-05 20:09 8.13092 -78.70461 19185 ft 349 kts 312°
2026-05-05 20:09 8.14679 -78.72312 18823 ft 348 kts 312°
2026-05-05 20:10 8.16261 -78.74157 18472 ft 348 kts 313°
2026-05-05 20:10 8.17840 -78.76000 18165 ft 346 kts 313°
2026-05-05 20:10 8.19410 -78.77831 17828 ft 343 kts 313°
2026-05-05 20:10 8.20967 -78.79647 17487 ft 341 kts 312°
2026-05-05 20:11 8.22515 -78.81453 17153 ft 339 kts 312°
2026-05-05 20:11 8.24081 -78.83221 16795 ft 337 kts 316°
2026-05-05 20:11 8.25754 -78.84872 16418 ft 336 kts 318°
2026-05-05 20:11 8.27467 -78.86470 16047 ft 335 kts 319°
2026-05-05 20:12 8.29185 -78.88055 15676 ft 335 kts 319°
2026-05-05 20:12 8.30900 -78.89644 15305 ft 334 kts 319°
2026-05-05 20:12 8.32605 -78.91233 14925 ft 332 kts 318°
2026-05-05 20:12 8.34281 -78.92805 14535 ft 325 kts 318°
2026-05-05 20:13 8.35914 -78.94342 14186 ft 319 kts 318°
2026-05-05 20:13 8.37538 -78.95876 13818 ft 320 kts 317°
2026-05-05 20:13 8.39143 -78.97392 13433 ft 321 kts 317°
2026-05-05 20:13 8.40771 -78.98933 13057 ft 320 kts 317°
2026-05-05 20:14 8.42390 -79.00466 12687 ft 319 kts 317°
2026-05-05 20:14 8.44005 -79.01996 12325 ft 318 kts 317°
2026-05-05 20:14 8.45618 -79.03525 11967 ft 317 kts 317°
2026-05-05 20:14 8.47224 -79.05047 11609 ft 316 kts 317°
2026-05-05 20:15 8.48812 -79.06551 11247 ft 309 kts 317°
2026-05-05 20:15 8.50353 -79.08013 10901 ft 301 kts 317°
2026-05-05 20:15 8.51872 -79.09453 10580 ft 299 kts 317°
2026-05-05 20:15 8.53390 -79.10892 10244 ft 299 kts 317°
2026-05-05 20:16 8.54905 -79.12328 9903 ft 299 kts 317°
2026-05-05 20:16 8.56411 -79.13757 9533 ft 293 kts 317°
2026-05-05 20:16 8.57876 -79.15147 9184 ft 287 kts 317°
2026-05-05 20:16 8.59328 -79.16525 8863 ft 286 kts 317°
2026-05-05 20:17 8.60775 -79.17898 8542 ft 285 kts 317°
2026-05-05 20:17 8.62221 -79.19270 8212 ft 285 kts 317°
2026-05-05 20:17 8.63665 -79.20640 7901 ft 284 kts 317°
2026-05-05 20:17 8.65108 -79.22009 7589 ft 285 kts 317°
2026-05-05 20:18 8.66557 -79.23384 7282 ft 287 kts 318°
2026-05-05 20:18 8.67998 -79.24779 6923 ft 286 kts 314°
2026-05-05 20:18 8.69294 -79.26288 6598 ft 282 kts 310°
2026-05-05 20:18 8.70103 -79.27303 6400 ft 279 kts 310°
2026-05-05 20:19 8.70984 -79.28422 6142 ft 276 kts 310°
2026-05-05 20:19 8.72169 -79.29920 5813 ft 270 kts 310°
2026-05-05 20:19 8.73268 -79.31297 5524 ft 263 kts 310°
2026-05-05 20:20 8.74410 -79.32720 5223 ft 260 kts 310°
2026-05-05 20:20 8.75551 -79.34133 4947 ft 259 kts 310°
2026-05-05 20:20 8.76671 -79.35517 4665 ft 258 kts 310°
2026-05-05 20:20 8.77806 -79.36916 4363 ft 257 kts 310°
2026-05-05 20:21 8.78938 -79.38309 4067 ft 256 kts 310°
2026-05-05 20:21 8.80065 -79.39697 3771 ft 253 kts 310°
2026-05-05 20:21 8.81172 -79.41055 3522 ft 248 kts 312°
2026-05-05 20:21 8.82371 -79.42259 3443 ft 240 kts 319°
2026-05-05 20:22 8.83619 -79.43367 3377 ft 239 kts 320°
2026-05-05 20:22 8.84868 -79.44479 3294 ft 240 kts 319°
2026-05-05 20:22 8.86118 -79.45605 3226 ft 239 kts 319°
2026-05-05 20:22 8.87336 -79.46707 3160 ft 232 kts 320°
2026-05-05 20:23 8.88727 -79.47405 3046 ft 222 kts 355°
2026-05-05 20:23 8.90221 -79.47157 2872 ft 217 kts 18°
2026-05-05 20:23 8.91632 -79.46608 2675 ft 219 kts 22°
2026-05-05 20:23 8.93021 -79.45969 2539 ft 218 kts 26°
2026-05-05 20:24 8.94351 -79.45233 2263 ft 215 kts 28°
2026-05-05 20:24 8.95634 -79.44492 2001 ft 210 kts 29°
2026-05-05 20:24 8.96877 -79.43778 1782 ft 202 kts 28°
2026-05-05 20:24 8.98085 -79.43086 1517 ft 196 kts 29°
2026-05-05 20:25 8.99234 -79.42428 1264 ft 183 kts 29°
2026-05-05 20:25 9.00301 -79.41817 1055 ft 169 kts 29°
2026-05-05 20:25 9.01273 -79.41259 840 ft 153 kts 28°
2026-05-05 20:25 9.02172 -79.40745 650 ft 147 kts 28°
2026-05-05 20:26 9.03057 -79.40239 453 ft 144 kts 28°
2026-05-05 20:26 9.03935 -79.39752 236 ft 145 kts 32°
2026-05-05 20:26 9.04799 -79.39231 91 ft 145 kts 26°
2026-05-05 20:26 9.05662 -79.38764 36 ft 129 kts 30°
2026-05-05 20:27 9.06352 -79.38361 29 ft 96 kts 30°
2026-05-05 20:27 9.06758 -79.38130 28 ft 45 kts 29°
2026-05-05 20:27 9.06944 -79.38021 29 ft 24 kts 29°
2026-05-05 20:27 9.07085 -79.37939 29 ft 18 kts 30°
2026-05-05 20:28 9.07167 -79.37955 29 ft 8 kts 300°
2026-05-05 20:28 9.07198 -79.38012 29 ft 8 kts 296°
2026-05-05 20:28 9.07178 -79.38070 29 ft 12 kts 218°
2026-05-05 20:28 9.07109 -79.38112 29 ft 13 kts 209°
2026-05-05 20:29 9.07033 -79.38157 29 ft 13 kts 211°
2026-05-05 20:29 9.06963 -79.38197 29 ft 11 kts 211°
2026-05-05 20:29 9.06902 -79.38255 29 ft 13 kts 233°
2026-05-05 20:29 9.06864 -79.38315 29 ft 4 kts 238°
2026-05-05 20:30 9.06848 -79.38340 29 ft 1 kts 237°
2026-05-05 20:30 9.06839 -79.38354 29 ft 4 kts 237°
2026-05-05 20:30 9.06812 -79.38380 29 ft 7 kts 211°
2026-05-05 20:30 9.06776 -79.38408 29 ft 1 kts 242°
2026-05-05 20:31 9.06779 -79.38422 29 ft 3 kts 278°
2026-05-05 20:31 9.06784 -79.38442 29 ft 2 kts 288°
2026-05-05 20:31 9.06786 -79.38447 29 ft 0 kts 289°
2026-05-05 20:31 9.06787 -79.38449 29 ft 0 kts 289°